• In Italy
  • List of Countries
  • For 7 days
  • Water Temperature
  • Satellite Maps
  • Weather Map
  • Weather Widgets
  • user-avatar
    Login

    Hourly Weather San Juan

    Today, 25 September, Tuesday

    Time Temperature Precipitation Wind Pressure Humidity
    00:00 +20°C° 0 mm 1 mps 704 mmHg 45%
    01:00 +20°C° 0 mm 1 mps 703 mmHg 48%
    02:00 +20°C° 0 mm 1 mps 703 mmHg 49%
    03:00 +19°C° 0 mm 1 mps 703 mmHg 50%
    04:00 +19°C° 0 mm 1 mps 703 mmHg 51%
    05:00 +20°C° 0 mm 1 mps 703 mmHg 48%
    06:00 +21°C° 0 mm 1 mps 703 mmHg 45%
    07:00 +22°C° 0 mm 1 mps 704 mmHg 43%
    08:00 +23°C° 0 mm 1 mps 703 mmHg 39%
    09:00 +25°C° 0 mm 2 mps 703 mmHg 36%
    10:00 +26°C° 0 mm 2 mps 703 mmHg 32%
    11:00 +27°C° 0 mm 2 mps 703 mmHg 29%
    12:00 +28°C° 0 mm 2 mps 702 mmHg 26%
    13:00 +29°C° 0 mm 3 mps 702 mmHg 23%
    14:00 +29°C° 0 mm 3 mps 701 mmHg 24%
    15:00 +29°C° 0 mm 4 mps 701 mmHg 24%
    16:00 +29°C° 0 mm 4 mps 701 mmHg 25%
    17:00 +28°C° 0 mm 4 mps 701 mmHg 28%
    18:00 +26°C° 0 mm 4 mps 702 mmHg 31%
    19:00 +25°C° 0 mm 4 mps 702 mmHg 35%
    20:00 +25°C° 0 mm 4 mps 703 mmHg 35%
    21:00 +24°C° 0 mm 3 mps 703 mmHg 36%
    22:00 +24°C° 0 mm 3 mps 704 mmHg 37%
    23:00 +22°C° 0 mm 3 mps 703 mmHg 39%

    Tomorrow, 26 September, Wednesday

    Time Temperature Precipitation Wind Pressure Humidity
    00:00 +22°C° 0 mm 3 mps 703 mmHg 40%
    01:00 +21°C° 0 mm 3 mps 703 mmHg 42%
    02:00 +20°C° 0 mm 3 mps 703 mmHg 44%
    03:00 +19°C° 0 mm 2 mps 703 mmHg 47%
    04:00 +19°C° 0 mm 2 mps 703 mmHg 49%
    05:00 +19°C° 0 mm 2 mps 703 mmHg 48%
    06:00 +19°C° 0 mm 3 mps 703 mmHg 47%
    07:00 +20°C° 0 mm 3 mps 704 mmHg 47%
    08:00 +21°C° 0 mm 3 mps 704 mmHg 44%
    09:00 +22°C° 0 mm 4 mps 704 mmHg 42%
    10:00 +25°C° 0 mm 4 mps 704 mmHg 40%
    11:00 +25°C° 0 mm 4 mps 703 mmHg 39%
    12:00 +26°C° 0 mm 4 mps 703 mmHg 37%
    13:00 +27°C° 0 mm 4 mps 702 mmHg 35%
    14:00 +27°C° 0 mm 5 mps 702 mmHg 37%
    15:00 +26°C° 0 mm 5 mps 702 mmHg 39%
    16:00 +26°C° 0 mm 6 mps 701 mmHg 40%
    17:00 +23°C° 0 mm 6 mps 702 mmHg 48%
    18:00 +22°C° 0 mm 6 mps 703 mmHg 56%
    19:00 +21°C° 0 mm 6 mps 703 mmHg 63%
    20:00 +20°C° 0 mm 5 mps 704 mmHg 67%
    21:00 +19°C° 0 mm 4 mps 704 mmHg 71%
    22:00 +19°C° 0 mm 4 mps 704 mmHg 76%
    23:00 +18°C° 0 mm 3 mps 704 mmHg 77%

    Day after tomorrow, 27 September, Thursday

    Time Temperature Precipitation Wind Pressure Humidity
    00:00 +18°C° 0 mm 3 mps 703 mmHg 79%
    01:00 +18°C° 0 mm 2 mps 703 mmHg 80%
    02:00 +17°C° 0 mm 2 mps 703 mmHg 81%
    03:00 +17°C° 0 mm 2 mps 703 mmHg 81%
    04:00 +17°C° 0 mm 2 mps 702 mmHg 81%
    05:00 +18°C° 0 mm 2 mps 703 mmHg 78%
    06:00 +18°C° 0 mm 2 mps 703 mmHg 76%
    07:00 +19°C° 0 mm 2 mps 703 mmHg 73%
    08:00 +20°C° 0 mm 2 mps 703 mmHg 66%
    09:00 +23°C° 0 mm 2 mps 703 mmHg 59%
    10:00 +24°C° 0 mm 2 mps 703 mmHg 51%
    11:00 +26°C° 0 mm 2 mps 702 mmHg 44%
    12:00 +27°C° 0 mm 3 mps 702 mmHg 37%
    13:00 +29°C° 0 mm 3 mps 701 mmHg 30%
    14:00 +29°C° 0 mm 3 mps 701 mmHg 30%
    15:00 +29°C° 0 mm 4 mps 701 mmHg 30%
    16:00 +30°C° 0 mm 4 mps 700 mmHg 30%
    17:00 +28°C° 0 mm 3 mps 701 mmHg 36%
    18:00 +27°C° 0 mm 2 mps 702 mmHg 42%
    19:00 +25°C° 0 mm 1 mps 702 mmHg 48%
    20:00 +25°C° 0 mm 1 mps 703 mmHg 51%
    21:00 +24°C° 0 mm 1 mps 703 mmHg 54%
    22:00 +23°C° 0 mm 2 mps 703 mmHg 56%
    23:00 +23°C° 0 mm 2 mps 703 mmHg 52%

    28 September, Friday

    Time Temperature Precipitation Wind Pressure Humidity
    00:00 +22°C° 0 mm 3 mps 702 mmHg 48%
    01:00 +21°C° 0 mm 3 mps 702 mmHg 43%
    02:00 +21°C° 0 mm 3 mps 702 mmHg 45%
    03:00 +21°C° 0 mm 3 mps 701 mmHg 46%
    04:00 +21°C° 0 mm 3 mps 701 mmHg 48%
    05:00 +22°C° 0 mm 3 mps 702 mmHg 45%
    06:00 +24°C° 0 mm 3 mps 702 mmHg 42%
    07:00 +25°C° 0 mm 3 mps 703 mmHg 39%
    08:00 +27°C° 0 mm 4 mps 703 mmHg 32%
    09:00 +29°C° 0 mm 5 mps 703 mmHg 26%
    10:00 +32°C° 0 mm 5 mps 703 mmHg 19%
    11:00 +34°C° 0 mm 6 mps 702 mmHg 16%
    12:00 +35°C° 0 mm 7 mps 701 mmHg 12%
    13:00 +38°C° 0 mm 7 mps 701 mmHg 8%
    14:00 +38°C° 0 mm 8 mps 700 mmHg 8%
    15:00 +38°C° 0 mm 9 mps 700 mmHg 7%
    16:00 +38°C° 0 mm 10 mps 700 mmHg 6%
    17:00 +35°C° 0 mm 9 mps 700 mmHg 9%
    18:00 +33°C° 0 mm 7 mps 700 mmHg 13%
    19:00 +30°C° 0 mm 6 mps 701 mmHg 16%
    20:00 +29°C° 0 mm 5 mps 700 mmHg 17%
    21:00 +28°C° 0 mm 5 mps 700 mmHg 19%
    22:00 +27°C° 0 mm 4 mps 700 mmHg 20%
    23:00 +26°C° 0 mm 4 mps 700 mmHg 23%

    29 September, Saturday

    Time Temperature Precipitation Wind Pressure Humidity
    00:00 +26°C° 0 mm 4 mps 699 mmHg 26%
    01:00 +25°C° 0 mm 4 mps 699 mmHg 29%
    02:00 +23°C° 0 mm 4 mps 698 mmHg 30%
    03:00 +23°C° 0 mm 4 mps 698 mmHg 31%
    04:00 +22°C° 0 mm 4 mps 697 mmHg 32%
    05:00 +25°C° 0 mm 5 mps 698 mmHg 27%
    06:00 +26°C° 0 mm 5 mps 698 mmHg 23%
    07:00 +27°C° 0 mm 6 mps 699 mmHg 19%
    08:00 +31°C° 0 mm 8 mps 698 mmHg 14%
    09:00 +33°C° 0 mm 10 mps 698 mmHg 10%
    10:00 +36°C° 0 mm 11 mps 698 mmHg 6%
    11:00 +37°C° 0 mm 12 mps 698 mmHg 6%
    12:00 +38°C° 0 mm 13 mps 697 mmHg 5%
    13:00 +40°C° 0 mm 14 mps 696 mmHg 5%
    14:00 +38°C° 0 mm 15 mps 696 mmHg 5%
    15:00 +38°C° 0 mm 16 mps 696 mmHg 5%
    16:00 +37°C° 0 mm 17 mps 696 mmHg 6%
    17:00 +34°C° 0 mm 15 mps 696 mmHg 7%
    18:00 +32°C° 0 mm 13 mps 697 mmHg 8%
    19:00 +29°C° 0 mm 12 mps 697 mmHg 10%
    20:00 +28°C° 0 mm 10 mps 697 mmHg 10%
    21:00 +28°C° 0 mm 8 mps 697 mmHg 11%
    22:00 +27°C° 0 mm 6 mps 697 mmHg 12%
    23:00 +26°C° 0 mm 6 mps 697 mmHg 12%

    30 September, Sunday

    Time Temperature Precipitation Wind Pressure Humidity
    00:00 +25°C° 0 mm 5 mps 697 mmHg 13%
    01:00 +23°C° 0 mm 5 mps 696 mmHg 13%
    02:00 +23°C° 0 mm 4 mps 697 mmHg 13%
    03:00 +22°C° 0 mm 4 mps 697 mmHg 13%
    04:00 +22°C° 0 mm 4 mps 697 mmHg 13%
    05:00 +23°C° 0 mm 5 mps 698 mmHg 13%
    06:00 +25°C° 0 mm 5 mps 699 mmHg 12%
    07:00 +26°C° 0 mm 5 mps 699 mmHg 11%
    08:00 +27°C° 0 mm 6 mps 700 mmHg 11%
    09:00 +28°C° 0 mm 6 mps 700 mmHg 10%
    10:00 +29°C° 0 mm 7 mps 700 mmHg 9%
    11:00 +29°C° 0 mm 8 mps 699 mmHg 11%
    12:00 +28°C° 0 mm 10 mps 699 mmHg 13%
    13:00 +28°C° 0 mm 11 mps 699 mmHg 15%
    14:00 +27°C° 0 mm 11 mps 699 mmHg 16%
    15:00 +26°C° 0 mm 10 mps 699 mmHg 17%
    16:00 +26°C° 0 mm 10 mps 699 mmHg 18%
    17:00 +23°C° 0 mm 8 mps 700 mmHg 21%
    18:00 +22°C° 0 mm 7 mps 700 mmHg 24%
    19:00 +20°C° 0 mm 5 mps 701 mmHg 26%
    20:00 +19°C° 0 mm 5 mps 701 mmHg 29%
    21:00 +17°C° 0 mm 5 mps 702 mmHg 31%
    22:00 +17°C° 0 mm 4 mps 702 mmHg 34%
    23:00 +16°C° 0 mm 5 mps 702 mmHg 36%
    Show more